This is the latest recevied weather packets stored in our database for station/object JE0GNV-13. If no packets are shown the sender has not sent any weather packets the latest 1 day(s).
| Time | Temp. | Humidity | Pressure | Rain* | Wind** | Luminosity | Snow |
|---|---|---|---|---|---|---|---|
| 1777966201 | 21.11° C | 40% | 1015.6 hPa | 0 mm | 0 m/s | - | - |
| 1777965600 | 21.11° C | 37% | 1015.4 hPa | 0 mm | 0 m/s | - | - |
| 1777965000 | 21.11° C | 34% | 1015.4 hPa | 0 mm | 0 m/s | - | - |
| 1777964401 | 21.11° C | 35% | 1015.3 hPa | 0 mm | 0 m/s | - | - |
| 1777963801 | 21.11° C | 34% | 1015.4 hPa | 0 mm | 0 m/s | - | - |
| 1777963200 | 21.11° C | 33% | 1015.4 hPa | 0 mm | 0 m/s | - | - |
| 1777962601 | 21.11° C | 32% | 1015.4 hPa | 0 mm | 0 m/s | - | - |
| 1777962001 | 21.11° C | 29% | 1015.4 hPa | 0 mm | 0 m/s | - | - |
| 1777961400 | 21.11° C | 28% | 1015.4 hPa | 0 mm | 0 m/s | - | - |
| 1777960801 | 21.11° C | 30% | 1015.3 hPa | 0 mm | 0 m/s | - | - |
| 1777960200 | 21.11° C | 30% | 1015.3 hPa | 0 mm | 0 m/s | - | - |
| 1777959600 | 21.11° C | 30% | 1015.3 hPa | 0 mm | 0 m/s | - | - |
| 1777959001 | 21.11° C | 28% | 1015.5 hPa | 0 mm | 0 m/s | - | - |
| 1777958401 | 21.11° C | 29% | 1015.6 hPa | 0 mm | 0 m/s | - | - |
| 1777957800 | 20.56° C | 31% | 1015.6 hPa | 0 mm | 0 m/s | - | - |
| 1777957201 | 20.56° C | 31% | 1015.7 hPa | 0 mm | 0 m/s | - | - |
| 1777956602 | 20° C | 29% | 1015.8 hPa | 0 mm | 0 m/s | - | - |
| 1777956001 | 20° C | 29% | 1015.8 hPa | 0 mm | 0 m/s | - | - |
| 1777955400 | 20° C | 27% | 1015.9 hPa | 0 mm | 0 m/s | - | - |
| 1777954800 | 19.44° C | 32% | 1016 hPa | 0 mm | 0 m/s | - | - |
| 1777954201 | 19.44° C | 32% | 1016 hPa | 0 mm | 0 m/s | - | - |
| 1777953601 | 18.89° C | 30% | 1016.1 hPa | 0 mm | 0 m/s | - | - |
| 1777953001 | 18.89° C | 27% | 1016.2 hPa | 0 mm | 0 m/s | - | - |
| 1777952401 | 18.33° C | 29% | 1016.2 hPa | 0 mm | 0 m/s | - | - |
| 1777951800 | 18.33° C | 26% | 1016.4 hPa | 0 mm | 0 m/s | - | - |
* Rain latest hour (hover to see other rain measurements)
** Current wind speed in m/s (hover to see current wind gust speed)